Wind_Speed
16 15 13 12 10 9 8 7 6 5 4 3 3 3 3 4 5 6 6 7 7 7 7 8 8 9 9 9 10 11 11 12 13 13 14 14 15 15 16 16 16 16 17
17 15 14 12 11 10 9 8 7 6 4 4 3 3 4 5 6 7 7 7 7 7 8 8 9 9 10 11 11 11 12 13 14 14 15 15 16 16 16 16 16 16 17
18 16 15 13 12 10 10 8 7 6 5 5 4 4 5 6 7 7 7 7 7 8 8 9 9 10 11 11 12 12 13 14 14 15 15 16 16 16 16 16 16 17 17
19 17 16 14 13 11 10 9 8 6 6 5 5 5 5 6 7 7 8 8 8 9 9 9 10 11 11 12 13 13 14 14 15 15 16 16 16 16 16 16 16 17 16
20 18 17 15 13 12 11 9 8 7 6 5 5 5 6 7 7 8 8 9 9 10 10 10 11 12 12 13 13 14 14 15 15 16 16 17 17 17 17 17 17 16 16
21 19 17 15 14 12 11 10 9 7 7 6 6 6 7 8 8 9 10 10 10 11 11 11 12 12 13 14 14 15 15 16 16 17 17 17 18 18 18 18 17 17 17
23 21 19 17 15 13 12 10 9 8 8 7 7 7 8 9 9 10 11 11 12 12 12 12 13 13 14 15 15 16 17 17 17 18 18 18 18 18 18 18 18 18 18
25 22 21 18 16 14 13 11 10 9 9 8 8 9 9 10 11 12 12 12 12 13 13 13 14 14 15 16 17 17 18 18 19 19 19 19 19 19 19 19 19 19 19
26 23 21 20 17 16 14 12 12 11 11 10 10 10 11 12 12 13 13 13 14 14 14 14 15 16 16 17 18 19 19 19 20 20 20 21 21 21 21 21 21 20 20
27 25 23 21 19 17 16 14 13 13 12 12 12 12 13 13 14 14 14 15 15 15 16 16 16 17 18 18 19 20 20 21 21 22 22 22 22 22 23 23 22 22 22
29 27 24 22 21 19 18 16 15 14 14 14 14 14 15 15 15 15 16 16 16 17 17 18 18 19 19 20 21 22 22 23 23 24 24 24 24 25 25 25 25 25 24
31 29 26 25 23 22 20 19 17 16 16 16 16 16 16 16 17 17 17 18 18 18 19 19 20 20 21 22 23 23 24 25 25 25 26 26 27 27 27 27 27 27 27
34 32 29 27 25 24 22 21 20 19 18 17 17 17 18 18 18 18 18 19 19 20 20 21 21 22 22 23 24 25 26 26 27 27 28 28 28 29 29 29 30 29 29
36 34 31 29 28 26 25 24 22 21 20 20 19 19 19 19 19 20 20 20 21 21 22 22 23 24 24 24 25 26 27 28 28 29 29 30 30 31 32 32 32 32 32
38 36 34 32 30 29 28 26 25 24 23 22 22 22 21 21 21 21 21 22 22 22 23 24 24 25 25 26 27 27 28 29 30 31 31 32 33 33 34 34 34 35 35
39 38 36 34 33 32 30 29 28 27 26 25 24 24 23 23 23 23 23 23 24 24 24 25 26 26 27 28 29 29 30 31 31 32 33 34 35 35 36 36 36 37 37
42 40 38 37 36 34 33 32 31 30 29 28 27 26 26 26 25 25 25 25 26 26 26 27 28 28 29 30 31 31 32 32 33 34 35 35 36 37 37 38 38 39 39
44 42 40 39 38 37 36 35 34 32 31 30 30 29 28 28 28 27 27 27 28 28 28 29 30 30 31 32 33 33 34 34 35 35 36 37 38 39 39 40 40 41 41
45 44 43 41 40 39 39 37 36 35 34 33 32 31 31 31 30 30 29 30 30 30 30 31 32 32 33 34 35 35 36 36 37 37 38 39 39 40 41 41 42 42 43
47 46 45 44 42 42 41 39 38 37 36 35 35 34 33 33 32 32 31 32 32 32 33 33 34 34 35 36 37 37 37 38 38 39 40 40 41 41 42 43 43 44 44
48 47 47 46 44 43 42 41 40 40 39 38 37 36 36 35 34 34 33 34 34 34 35 35 36 36 37 38 38 38 39 39 40 40 41 42 42 43 43 44 44 45 45
50 49 48 47 46 46 45 44 43 42 41 40 39 38 37 37 37 36 36 36 36 36 37 37 38 38 39 40 40 41 40 39 40 41 42 43 43 44 44 45 45 46 47
50 50 50 49 48 47 47 46 45 44 43 42 41 39 39 39 39 38 38 38 38 38 39 39 40 40 40 41 42 43 42 41 41 41 42 43 44 44 45 45 46 47 48
49 50 49 49 49 49 48 47 46 45 44 42 42 41 41 40 40 40 40 40 41 41 41 41 42 42 42 42 43 43 44 44 44 43 42 43 43 43 44 46 47 47 48
49 49 49 49 49 49 48 48 47 46 45 44 43 42 42 42 42 42 42 42 42 42 42 42 43 43 44 44 44 44 44 44 45 45 44 43 43 44 45 46 47 47 48
49 49 49 49 49 49 49 49 48 47 46 45 44 43 43 43 43 43 43 43 43 43 43 43 44 44 44 45 44 44 44 44 44 45 44 43 43 44 45 46 46 47 47
Wind_Direction
222 223 225 227 229 233 236 236 236 235 236 246 265 288 312 325 329 329 330 332 332 334 335 334 335 334 333 332 331 329 327 325 323 322 321 321 320 319 319 318 317 316 316
224 226 228 230 233 237 240 240 242 243 248 258 272 291 307 315 320 323 326 327 328 330 331 330 330 330 330 330 329 327 326 324 323 321 320 319 319 318 317 316 315 315 315
225 227 230 233 236 240 242 243 246 250 256 263 275 292 305 313 317 319 322 323 324 326 327 326 325 326 328 328 327 325 323 322 321 320 319 318 317 316 315 315 315 315 315
226 227 231 234 237 240 243 245 248 252 256 265 278 293 304 310 313 315 316 318 319 321 322 321 321 323 326 326 324 323 321 319 319 319 318 316 315 314 313 313 313 313 314
226 227 229 232 236 238 241 244 248 250 254 264 278 291 301 307 310 312 314 316 317 318 318 319 320 322 324 324 322 321 319 318 318 318 317 316 314 312 311 310 310 311 312
225 225 228 230 233 237 239 243 247 250 256 266 279 290 298 304 308 311 312 315 316 316 316 318 319 320 321 321 320 318 316 315 315 316 315 314 313 311 309 307 307 307 308
224 225 227 228 231 235 239 243 247 253 259 268 280 289 294 300 305 308 311 314 316 316 316 317 318 318 318 318 318 317 315 314 313 312 312 311 310 309 307 305 304 303 304
226 225 227 228 229 233 239 243 249 256 263 271 280 286 292 298 302 306 310 313 314 315 315 316 318 317 316 315 315 315 314 312 311 310 309 308 307 305 303 301 300 300 300
228 227 228 228 230 233 237 243 249 256 263 270 278 284 289 295 299 303 307 311 312 313 314 315 315 314 313 312 313 313 312 311 309 308 307 306 304 303 301 299 297 297 296
228 227 228 230 232 235 238 242 247 254 262 269 276 281 285 291 295 300 304 308 310 311 313 313 312 312 312 311 311 311 310 309 307 306 305 304 302 301 299 298 296 295 294
228 228 230 232 235 238 240 243 247 252 259 266 272 277 282 287 292 296 301 304 307 309 311 311 310 310 310 310 310 309 308 307 306 305 304 303 301 299 298 297 295 294 293
228 229 230 233 237 240 242 245 249 253 257 263 269 274 279 283 287 292 296 300 303 305 307 308 308 308 308 308 308 307 307 306 305 304 303 302 300 299 297 295 294 293 292
228 229 230 233 237 241 244 247 251 254 258 262 266 271 275 279 283 288 292 295 298 301 303 305 305 305 305 305 305 305 305 305 304 303 302 300 299 298 296 295 294 293 292
229 230 231 233 237 241 245 249 252 256 259 263 266 269 272 276 281 285 290 293 296 298 300 302 302 303 303 303 302 302 303 303 302 301 301 300 298 297 296 294 293 292 291
228 230 232 234 238 241 245 249 253 256 260 263 266 269 272 275 279 284 288 291 293 296 297 298 299 300 300 300 300 300 300 301 300 300 299 299 298 297 296 295 293 292 291
229 231 233 235 238 241 245 249 252 256 259 263 266 269 272 275 278 282 285 288 290 293 294 296 296 297 297 298 298 299 299 299 299 298 298 298 297 296 295 294 293 292 291
229 230 232 235 238 241 244 247 251 255 258 262 265 268 271 274 277 280 283 286 288 291 293 294 294 295 296 296 297 297 297 298 298 298 298 297 297 296 295 295 294 293 291
229 231 233 235 238 241 244 247 250 254 257 260 263 266 269 272 275 279 282 285 287 289 291 292 293 294 295 295 295 296 297 298 298 298 298 297 297 296 296 295 294 293 292
229 230 232 234 237 240 243 246 249 252 256 259 262 265 267 271 274 277 280 283 285 287 289 290 291 292 293 294 295 296 297 297 298 298 298 297 297 297 296 296 296 294 293
230 231 232 233 236 239 242 245 248 251 254 257 260 263 266 269 273 275 278 280 283 285 287 289 290 291 292 292 294 295 296 297 298 298 297 297 297 297 297 297 296 295 294
232 232 233 233 236 238 241 244 247 250 253 256 258 261 265 268 271 273 275 278 282 284 285 287 288 290 291 291 293 294 295 296 297 296 297 297 297 297 297 296 296 295 294
233 233 233 234 235 238 240 243 246 249 252 255 258 261 264 267 269 272 274 277 279 281 283 285 287 288 289 291 292 292 293 294 295 296 297 297 297 297 297 297 296 296 295
234 235 235 236 236 238 239 242 244 247 250 253 257 259 262 265 268 271 273 276 278 280 282 284 285 287 289 290 292 293 293 293 293 295 296 297 297 297 297 297 298 297 296
235 236 236 237 238 239 240 242 244 246 249 252 255 258 260 264 267 270 272 275 277 279 281 283 285 287 288 290 291 292 293 294 295 295 296 296 297 297 297 298 299 299 298
236 236 237 238 239 240 241 243 245 247 249 251 254 257 260 263 266 269 272 275 277 279 281 283 285 287 288 289 291 292 293 294 296 296 296 297 297 298 299 299 300 300 299
237 237 238 239 240 241 243 244 246 248 250 252 254 257 260 263 266 269 272 274 276 278 280 283 284 286 287 289 290 291 293 294 295 296 297 298 298 299 300 300 301 301 300
Height
5881 5883 5884 5886 5887 5888 5890 5891 5891 5892 5893 5894 5894 5895 5895 5895 5896 5896 5896 5896 5896 5895 5895 5895 5894 5894 5893 5892 5892 5891 5890 5889 5889 5888 5887 5886 5885 5884 5883 5882 5880 5879 5878
5880 5882 5883 5884 5886 5887 5888 5889 5890 5891 5892 5893 5893 5894 5894 5894 5895 5895 5895 5895 5894 5894 5894 5893 5893 5892 5892 5891 5890 5890 5889 5888 5887 5886 5885 5884 5883 5882 5881 5880 5879 5877 5876
5878 5880 5881 5883 5884 5886 5887 5888 5889 5890 5891 5891 5892 5893 5893 5893 5894 5894 5894 5894 5893 5893 5893 5892 5892 5891 5890 5890 5889 5888 5887 5886 5886 5885 5883 5882 5881 5880 5879 5878 5877 5875 5874
5876 5878 5879 5881 5883 5884 5885 5887 5888 5889 5890 5890 5891 5891 5892 5892 5893 5893 5893 5893 5892 5892 5891 5891 5890 5890 5889 5888 5887 5887 5886 5885 5884 5883 5882 5880 5879 5878 5877 5876 5874 5873 5872
5873 5875 5877 5879 5881 5882 5884 5885 5886 5887 5888 5889 5890 5890 5891 5891 5891 5891 5891 5891 5891 5890 5890 5889 5889 5888 5887 5887 5886 5885 5884 5883 5882 5881 5880 5879 5877 5876 5875 5874 5872 5871 5870
5871 5873 5875 5877 5879 5881 5882 5883 5885 5886 5887 5888 5888 5889 5889 5890 5890 5890 5890 5890 5889 5889 5888 5888 5887 5886 5886 5885 5884 5883 5882 5881 5880 5879 5878 5876 5875 5874 5873 5872 5870 5869 5868
5868 5870 5873 5875 5877 5879 5880 5882 5883 5884 5885 5886 5887 5887 5888 5888 5888 5888 5888 5888 5888 5887 5887 5886 5885 5885 5884 5883 5882 5881 5880 5879 5878 5877 5875 5874 5873 5872 5870 5869 5868 5867 5866
5865 5867 5870 5872 5874 5876 5878 5880 5881 5882 5883 5884 5885 5885 5886 5886 5887 5887 5886 5886 5886 5885 5885 5884 5884 5883 5882 5881 5880 5879 5878 5877 5876 5874 5873 5872 5870 5869 5868 5867 5865 5864 5863
5861 5864 5867 5869 5872 5874 5876 5877 5879 5880 5881 5882 5883 5883 5884 5884 5884 5885 5884 5884 5884 5883 5883 5882 5882 5881 5880 5879 5878 5877 5876 5874 5873 5872 5870 5869 5868 5866 5865 5864 5862 5861 5860
5858 5861 5864 5866 5869 5871 5873 5875 5876 5878 5879 5880 5881 5881 5882 5882 5882 5882 5882 5882 5882 5881 5881 5880 5879 5879 5878 5877 5875 5874 5873 5872 5870 5869 5868 5866 5865 5863 5862 5861 5859 5858 5856
5854 5858 5861 5863 5866 5868 5870 5872 5874 5875 5876 5877 5878 5879 5879 5880 5880 5880 5879 5879 5879 5879 5878 5878 5877 5876 5875 5874 5873 5871 5870 5869 5867 5866 5865 5863 5862 5860 5859 5857 5856 5854 5853
5850 5853 5857 5859 5862 5864 5866 5868 5870 5872 5873 5874 5875 5876 5877 5877 5877 5877 5877 5877 5876 5876 5875 5875 5874 5873 5872 5871 5870 5868 5867 5865 5864 5862 5861 5859 5858 5856 5855 5853 5852 5850 5849
5845 5849 5852 5855 5858 5860 5863 5865 5867 5868 5870 5871 5872 5873 5873 5874 5874 5874 5874 5874 5873 5873 5872 5872 5871 5870 5869 5868 5866 5865 5863 5862 5860 5858 5857 5855 5853 5852 5850 5849 5847 5845 5844
5840 5844 5848 5851 5854 5856 5858 5861 5863 5864 5866 5867 5868 5869 5870 5870 5870 5871 5871 5870 5870 5870 5869 5868 5867 5866 5865 5864 5863 5861 5859 5858 5856 5854 5852 5850 5849 5847 5845 5843 5842 5840 5839
5835 5839 5843 5846 5849 5852 5854 5856 5858 5860 5862 5863 5864 5865 5866 5866 5867 5867 5867 5866 5866 5866 5865 5865 5864 5862 5861 5860 5858 5857 5855 5853 5851 5849 5847 5845 5843 5841 5840 5838 5836 5835 5833
5829 5833 5837 5841 5844 5847 5849 5851 5853 5855 5857 5858 5860 5861 5861 5862 5862 5862 5862 5862 5862 5862 5861 5860 5859 5858 5856 5855 5853 5852 5850 5848 5846 5844 5842 5840 5838 5835 5834 5832 5830 5828 5826
5822 5827 5831 5835 5838 5841 5844 5846 5848 5850 5852 5853 5855 5856 5856 5857 5857 5858 5858 5857 5857 5857 5856 5855 5854 5853 5851 5850 5848 5846 5845 5843 5841 5838 5836 5833 5831 5829 5827 5825 5823 5821 5819
5816 5820 5824 5828 5832 5835 5837 5840 5842 5844 5846 5848 5849 5850 5851 5852 5852 5852 5852 5852 5851 5851 5850 5849 5848 5847 5846 5844 5842 5840 5839 5837 5834 5832 5829 5827 5824 5822 5819 5817 5815 5813 5811
5808 5813 5817 5821 5825 5828 5831 5833 5836 5838 5840 5842 5843 5844 5845 5846 5846 5846 5846 5846 5845 5845 5844 5843 5842 5841 5839 5837 5836 5834 5832 5830 5828 5825 5822 5819 5817 5814 5812 5809 5807 5805 5803
5801 5805 5809 5813 5817 5820 5824 5827 5829 5831 5833 5835 5836 5837 5838 5839 5840 5840 5840 5839 5839 5839 5838 5837 5836 5834 5833 5831 5829 5827 5825 5823 5820 5818 5815 5812 5809 5806 5804 5801 5798 5796 5794
5793 5797 5802 5806 5809 5813 5816 5819 5822 5824 5826 5828 5829 5830 5832 5833 5833 5833 5833 5833 5832 5832 5831 5830 5828 5827 5825 5823 5822 5820 5818 5816 5813 5810 5807 5805 5801 5798 5795 5792 5789 5786 5784
5785 5789 5794 5798 5801 5805 5808 5811 5814 5817 5819 5821 5822 5823 5824 5825 5826 5826 5826 5826 5825 5825 5824 5822 5821 5819 5818 5816 5814 5812 5811 5810 5806 5802 5799 5796 5793 5789 5786 5783 5779 5776 5774
5776 5781 5785 5789 5793 5796 5800 5803 5806 5809 5811 5813 5815 5816 5816 5817 5818 5818 5818 5818 5818 5817 5816 5815 5813 5812 5810 5808 5805 5803 5802 5801 5799 5796 5792 5788 5784 5780 5777 5773 5770 5766 5763
5768 5772 5776 5780 5784 5787 5791 5794 5797 5800 5803 5805 5806 5807 5808 5809 5810 5810 5810 5810 5810 5809 5808 5807 5805 5803 5801 5799 5797 5794 5792 5790 5788 5787 5785 5780 5775 5771 5767 5764 5760 5756 5752
5759 5763 5767 5771 5775 5779 5782 5785 5789 5791 5794 5796 5798 5799 5800 5801 5801 5802 5802 5801 5801 5800 5799 5798 5796 5794 5792 5790 5788 5785 5783 5780 5777 5775 5774 5771 5767 5762 5758 5754 5750 5745 5741
5750 5754 5758 5762 5766 5769 5773 5776 5779 5782 5785 5787 5789 5790 5791 5792 5792 5793 5793 5792 5792 5791 5790 5788 5787 5785 5783 5781 5778 5776 5773 5771 5768 5765 5763 5761 5757 5753 5748 5744 5739 5735 5730